Date String (YYYY-MM-DD hh:mm:ss) UTC,Instrument flags,absolute air pressure of the measurement (hPa),sample flow rate (lpm),inlet stack bypass flow (lpm),air temperature of the measurement (°C),ambient temperature measured by the external sensor (°C),aerosol sample conditioner tube jacket temperature (°C),OPC LED temperature (°C),internal box temperature (°C),relative humidity of the measurement (%),span deviation,mass concentration of particles derived from Lorenz-Mie calculation of OPC scattering (μg/m³),mass concentration of particles derived from Lorenz-Mie calculation of OPC scattering (μg/m³),mass concentration of particles derived from Lorenz-Mie calculation of OPC scattering (μg/m³)
DateTimeUTC,F1_M11,P_M11,Q1_M11,Q2_M11,T1_M11,T2_M11,T3_M11,T4_M11,T5_M11,U1_M11,ZSPAN_M11,X0_M11,X2_M11,X1_M11
2024-03-20 23:00:00,SystemResetWarning,0825.4,5.00,000.00,024.4,023.8,000.0,032.8,026.3,17.9,0001.5,0020.26,0008.76,0007.32
2024-03-20 23:01:00,SystemResetWarning,0825.4,5.00,000.00,024.5,023.8,000.0,032.9,026.3,17.9,0001.4,0020.66,0008.74,0007.33
2024-03-20 23:02:00,SystemResetWarning,0825.4,5.00,000.00,024.5,023.8,000.0,032.9,026.3,17.9,0001.6,0021.19,0008.68,0007.33
2024-03-20 23:03:00,SystemResetWarning,0825.4,5.01,000.00,024.5,023.9,000.0,032.9,026.4,17.7,0002.2,0021.96,0008.65,0007.34
2024-03-20 23:04:00,SystemResetWarning,0825.4,5.00,000.00,024.5,023.9,000.0,032.9,026.4,17.6,0002.3,0023.65,0008.65,0007.34
2024-03-20 23:05:00,SystemResetWarning,0825.4,5.00,000.00,024.5,023.9,000.0,032.9,026.4,17.6,0003.1,0023.75,0008.69,0007.35
2024-03-20 23:06:00,SystemResetWarning,0825.4,5.01,000.00,024.5,023.9,000.0,032.9,026.4,17.6,0003.7,0022.60,0008.68,0007.36
2024-03-20 23:07:00,SystemResetWarning,0825.4,4.99,000.00,024.5,023.9,000.0,032.9,026.4,17.5,0003.7,0021.93,0008.67,0007.35
2024-03-20 23:08:00,SystemResetWarning,0825.4,5.00,000.00,024.5,023.9,000.0,032.9,026.4,17.5,0003.5,0021.49,0008.65,0007.34
2024-03-20 23:09:00,SystemResetWarning,0825.4,5.00,000.00,024.6,024.0,000.0,032.9,026.4,17.6,0003.5,0021.31,0008.59,0007.34
2024-03-20 23:10:00,SystemResetWarning,0825.4,5.00,000.00,024.6,024.0,000.0,033.0,026.5,17.5,0003.6,0020.79,0008.60,0007.36
2024-03-20 23:11:00,SystemResetWarning,0825.4,4.99,000.00,024.6,024.0,000.0,033.0,026.5,17.9,0003.8,0020.24,0008.60,0007.34
2024-03-20 23:12:00,SystemResetWarning,0825.4,5.00,000.00,024.6,024.0,000.0,033.0,026.5,17.7,0003.5,0020.59,0008.63,0007.35
2024-03-20 23:13:00,SystemResetWarning,0825.4,5.00,000.00,024.6,024.0,000.0,033.0,026.5,17.8,0003.1,0021.87,0008.65,0007.32
2024-03-20 23:14:00,SystemResetWarning,0825.4,5.00,000.00,024.7,024.1,000.0,033.0,026.5,17.3,0002.9,0020.99,0008.57,0007.26
2024-03-20 23:15:00,SystemResetWarning,0825.3,5.01,000.00,024.7,024.1,000.0,033.0,026.5,17.4,0002.8,0019.48,0008.47,0007.21
2024-03-20 23:16:00,SystemResetWarning,0825.3,5.00,000.00,024.7,024.1,000.0,033.1,026.5,17.2,0003.4,0019.44,0008.41,0007.17
2024-03-20 23:17:00,SystemResetWarning,0825.3,5.00,000.00,024.7,024.1,000.0,033.1,026.5,17.2,0003.0,0021.50,0008.45,0007.14
2024-03-20 23:18:00,SystemResetWarning,0825.4,5.00,000.00,024.7,024.1,000.0,033.1,026.6,17.1,0002.4,0021.78,0008.44,0007.13
2024-03-20 23:19:00,SystemResetWarning,0825.3,5.00,000.00,024.7,024.1,000.0,033.1,026.6,17.3,0002.7,0022.69,0008.44,0007.14
2024-03-20 23:20:00,SystemResetWarning,0825.3,5.00,000.00,024.7,024.1,000.0,033.1,026.6,17.1,0002.8,0023.35,0008.41,0007.16
2024-03-20 23:21:00,SystemResetWarning,0825.3,5.00,000.00,024.7,024.1,000.0,033.1,026.6,17.3,0002.9,0023.87,0008.47,0007.19
2024-03-20 23:22:00,SystemResetWarning,0825.3,4.99,000.00,024.7,024.1,000.0,033.1,026.6,17.3,0003.1,0024.48,0008.49,0007.24
2024-03-20 23:23:00,SystemResetWarning,0825.3,4.99,000.00,024.7,024.1,000.0,033.1,026.6,16.9,0003.4,0023.83,0008.50,0007.28
2024-03-20 23:24:00,SystemResetWarning,0825.4,4.99,000.00,024.7,024.1,000.0,033.1,026.6,17.1,0003.7,0022.52,0008.51,0007.31
2024-03-20 23:25:00,SystemResetWarning,0825.3,5.01,000.00,024.7,024.1,000.0,033.2,026.6,17.2,0003.8,0022.65,0008.56,0007.37
2024-03-20 23:26:00,SystemResetWarning,0825.3,5.01,000.00,024.8,024.1,000.0,033.2,026.6,17.5,0004.2,0023.45,0008.70,0007.43
2024-03-20 23:27:00,SystemResetWarning,0825.3,5.00,000.00,024.8,024.1,000.0,033.2,026.6,17.1,0003.8,0024.01,0008.81,0007.52
2024-03-20 23:28:00,SystemResetWarning,0825.3,5.00,000.00,024.8,024.1,000.0,033.2,026.6,16.9,0003.7,0023.96,0008.88,0007.59
2024-03-20 23:29:00,SystemResetWarning,0825.3,5.00,000.00,024.8,024.1,000.0,033.2,026.6,17.0,0003.9,0023.10,0008.91,0007.67
2024-03-20 23:30:00,SystemResetWarning,0825.3,4.99,000.00,024.8,024.1,000.0,033.2,026.6,16.9,0004.7,0025.00,0008.96,0007.73
2024-03-20 23:31:00,SystemResetWarning,0825.3,5.00,000.00,024.8,024.1,000.0,033.2,026.6,17.0,0004.4,0024.49,0009.03,0007.78
2024-03-20 23:32:00,SystemResetWarning,0825.3,5.00,000.00,024.8,024.1,000.0,033.2,026.6,17.0,0004.2,0023.83,0009.15,0007.81
2024-03-20 23:33:00,SystemResetWarning,0825.3,5.00,000.00,024.8,024.1,000.0,033.2,026.6,17.1,0004.3,0023.05,0009.13,0007.82
2024-03-20 23:34:00,SystemResetWarning,0825.2,5.00,000.00,024.8,024.2,000.0,033.2,026.6,17.3,0004.2,0022.58,0009.15,0007.83
2024-03-20 23:35:00,SystemResetWarning,0825.3,5.00,000.00,024.8,024.2,000.0,033.2,026.6,17.2,0004.1,0022.70,0009.14,0007.83
2024-03-20 23:36:00,SystemResetWarning,0825.3,5.00,000.00,024.8,024.2,000.0,033.3,026.7,17.4,0004.4,0022.77,0009.12,0007.83
2024-03-20 23:37:00,SystemResetWarning,0825.3,5.00,000.00,024.8,024.2,000.0,033.3,026.7,17.4,0004.4,0022.48,0009.09,0007.84
2024-03-20 23:38:00,SystemResetWarning,0825.2,5.00,000.00,024.8,024.2,000.0,033.3,026.7,17.2,0004.5,0022.16,0009.09,0007.84
2024-03-20 23:39:00,SystemResetWarning,0825.2,5.00,000.00,024.9,024.2,000.0,033.3,026.7,17.2,0004.9,0021.92,0009.11,0007.83
2024-03-20 23:40:00,SystemResetWarning,0825.2,5.02,000.00,024.9,024.2,000.0,033.3,026.7,17.3,0004.9,0021.64,0009.12,0007.81
2024-03-20 23:41:00,SystemResetWarning,0825.2,4.99,000.00,024.9,024.2,000.0,033.3,026.7,17.2,0004.6,0020.29,0009.11,0007.79
2024-03-20 23:42:00,SystemResetWarning,0825.3,4.99,000.00,024.9,024.3,000.0,033.3,026.7,17.0,0004.2,0019.83,0009.14,0007.81
2024-03-20 23:43:00,SystemResetWarning,0825.3,5.02,000.00,024.9,024.3,000.0,033.3,026.7,17.0,0003.6,0019.76,0009.12,0007.80
2024-03-20 23:44:00,SystemResetWarning,0825.2,5.01,000.00,024.9,024.3,000.0,033.3,026.7,17.3,0003.6,0019.50,0009.10,0007.80
2024-03-20 23:45:00,SystemResetWarning,0825.2,5.00,000.00,024.9,024.3,000.0,033.3,026.7,17.2,0003.5,0020.42,0009.11,0007.82
2024-03-20 23:46:00,SystemResetWarning,0825.3,5.00,000.00,024.9,024.3,000.0,033.3,026.8,16.9,0003.2,0021.68,0009.13,0007.86
2024-03-20 23:47:00,SystemResetWarning,0825.2,5.00,000.00,024.9,024.3,000.0,033.3,026.8,16.9,0003.1,0021.75,0009.18,0007.91
2024-03-20 23:48:00,SystemResetWarning,0825.2,5.00,000.00,024.9,024.3,000.0,033.4,026.8,16.8,0002.5,0021.92,0009.26,0007.97
2024-03-20 23:49:00,SystemResetWarning,0825.3,5.00,000.00,024.9,024.3,000.0,033.4,026.8,17.0,0002.3,0021.61,0009.28,0008.00
2024-03-20 23:50:00,SystemResetWarning,0825.3,5.00,000.00,025.0,024.3,000.0,033.4,026.8,17.1,0002.1,0021.78,0009.20,0007.99
2024-03-20 23:51:00,SystemResetWarning,0825.3,5.02,000.00,025.0,024.3,000.0,033.4,026.8,17.0,0001.6,0022.33,0009.18,0008.00
2024-03-20 23:52:00,SystemResetWarning,0825.3,5.00,000.00,025.0,024.3,000.0,033.4,026.8,16.9,0001.7,0022.55,0009.19,0008.01
2024-03-20 23:53:00,SystemResetWarning,0825.3,5.00,000.00,025.0,024.3,000.0,033.4,026.8,16.8,0002.7,0022.68,0009.19,0008.02
2024-03-20 23:54:00,SystemResetWarning,0825.3,5.00,000.00,025.0,024.3,000.0,033.4,026.8,16.7,0003.7,0023.39,0009.17,0008.01
2024-03-20 23:55:00,SystemResetWarning,0825.3,4.99,000.00,025.0,024.3,000.0,033.4,026.8,16.7,0004.1,0024.52,0009.21,0008.03
2024-03-20 23:56:00,SystemResetWarning,0825.3,5.00,000.00,025.0,024.3,000.0,033.4,026.8,16.4,0004.3,0024.42,0009.28,0008.05
2024-03-20 23:57:00,SystemResetWarning,0825.2,5.00,000.00,025.0,024.3,000.0,033.4,026.8,16.3,0004.5,0023.77,0009.31,0008.05
2024-03-20 23:58:00,SystemResetWarning,0825.2,5.00,000.00,025.0,024.3,000.0,033.4,026.8,16.1,0004.6,0023.10,0009.34,0008.07
2024-03-20 23:59:00,SystemResetWarning,0825.2,5.00,000.00,025.0,024.3,000.0,033.5,026.8,16.2,0004.9,0022.98,0009.37,0008.07
